Regional Weather Roundup
Issued by NWS

Home | Current Version | Previous Version | Graphics & Text | Print | Product List | Glossary On
Versions: 1 2 3 4 5 6 7 8 9 10 11 12 13 14 15 16 17 18 19 20 21 22 23 24 25 26 27 28 29 30 31 32 33 34 35 36 37 38 39 40 41 42 43 44 45 46 47 48 49 50
000
ASUS43 KMKX 312300
RWRWI

WISCONSIN REGIONAL WEATHER ROUNDUP
NATIONAL WEATHER SERVICE MILWAUKEE/SULLIVAN WI
600 PM CDT THU JUL 31 2014

NOTE: "FAIR" INDICATES FEW OR NO CLOUDS BELOW 12,000 FEET WITH NO
SIGNIFICANT WEATHER AND/OR OBSTRUCTIONS TO VISIBILITY.

WIZ001-002-006>008-014>016-023>028-010000-
NORTHWEST WISCONSIN

CITY           SKY/WX    TMP DP  RH WIND       PRES   REMARKS
SUPERIOR ARPT  SUNNY     80  57  45 NW10      29.95S HX  80
ASHLAND        SUNNY     77  56  48 W7        29.96F
HAYWARD        SUNNY     79  56  45 VRB5      29.98S HX  80
SIREN          MOSUNNY   81  59  47 NW12      29.98S HX  81
RICE LAKE      PTSUNNY   73  62  69 SW3       30.01S
LADYSMITH      MOSUNNY   75  62  63 W8        30.00S
EAU CLAIRE     NOT AVBL
MENOMONIE      PTCLDY    81  54  39 SW9       30.00S HX  80
NEW RICHMOND   SUNNY     80  54  41 W9        30.00S HX  80
OSCEOLA        MOSUNNY   80  61  51 W9        30.01S HX  81
$$

WIZ003>005-009-010-017-018-010000-
NORTH CENTRAL WISCONSIN

CITY           SKY/WX    TMP DP  RH WIND       PRES   REMARKS
WOODRUFF       SUNNY     77  49  37 NW7       29.99S
RHINELANDER    SUNNY     74  50  42 NW3       30.00S
EAGLE RIVER    MOSUNNY   74  45  35 NW8       29.99S
LAND O LAKES   SUNNY     74  45  35 NW7       30.00S
PHILLIPS       MOSUNNY   75  55  50 W3        29.98F
TOMAHAWK       MOSUNNY   74  54  49 CALM      29.99S
MEDFORD        MOSUNNY   73  62  68 W7        30.00S
MERRILL        MOSUNNY   76  62  62 W7        29.97F
$$

WIZ029-030-035-036-043>047-010000-
CENTRAL WISCONSIN

CITY           SKY/WX    TMP DP  RH WIND       PRES   REMARKS
WAUSAU         PTSUNNY   75  60  59 W8        29.97S
MOSINEE        MOSUNNY   73  59  60 W12G21    30.01R
MARSHFIELD     MOSUNNY   78  60  53 W10       29.99F
STEVENS POINT  PTSUNNY   74  59  60 CALM      30.00R
WAUPACA        PTSUNNY   82  55  40 NW7       29.98R HX  81
WAUTOMA        NOT AVBL
WISC RAPIDS    MOSUNNY   79  58  48 W10G20    29.99F HX  80
CAMP DOUGLAS   NOT AVBL
$$

WIZ011>013-019>022-031-037>040-048>050-010000-
NORTHEAST WISCONSIN

CITY           SKY/WX    TMP DP  RH WIND       PRES   REMARKS
ANTIGO         MOSUNNY   75  54  47 NW7       29.98S
STURGEON BAY   SUNNY     77  52  41 S7        29.96S
GREEN BAY      MOSUNNY   76  63  64 SW6       29.96S
MANITOWOC      NOT AVBL
APPLETON       LGT RAIN  72  63  73 NW8       29.99R
CLINTONVILLE   PTSUNNY   72  55  56 W9        29.98R
OSHKOSH        HAZE      72  64  76 CALM      29.97F VSB 1/4
$$

WIZ032>034-041-042-053>061-010000-
SOUTHWEST WISCONSIN

CITY           SKY/WX    TMP DP  RH WIND       PRES   REMARKS
LA CROSSE      SUNNY     80  57  45 NW6       29.99F HX  80
SPARTA         SUNNY     79  55  44 W7        30.01F
VIROQUA        FAIR      77  56  47 W7        30.03F
BOSCOBEL       SUNNY     83  57  41 NW7       30.01F HX  82
PRAIRIE DU CHI SUNNY     81  50  33 W6        30.01S HX  80
PLATTEVILLE    FAIR      79  57  47 W9        30.04F HX  80
$$

WIZ056-057-062-063-064-067-068-010000-
SOUTH CENTRAL WISCONSIN

CITY           SKY/WX    TMP DP  RH WIND       PRES   REMARKS
BARABOO/DELLS  SUNNY     79  53  41 NW12      30.01R
LONE ROCK      NOT AVBL
WATERTOWN      SUNNY     79  57  47 W7        30.00S HX  80
MADISON        MOSUNNY   81  57  43 NW8       30.01S HX  81
MIDDLETON      FAIR      80  55  41 W12       30.02S HX  80
MONROE         SUNNY     79  54  41 W10       30.03S
JANESVILLE     MOSUNNY   82  52  34 W13       30.01S HX  81
$$

WIZ051-052-058>065-066-070>072-010000-
SOUTHEAST WISCONSIN

CITY           SKY/WX    TMP DP  RH WIND       PRES   REMARKS
MILWAUKEE      PTSUNNY   81  55  40 W14       29.99S HX  81
WAUKESHA       MOSUNNY   79  54  41 W9        30.01R
MILWAUKEE/TIMM NOT AVBL
RACINE         SUNNY     80  57  45 W10       30.01S HX  80
BURLINGTON     SUNNY     78  57  48 W6        30.01S
KENOSHA        SUNNY     79  59  50 W8        30.00S HX  80
FOND DU LAC    MOSUNNY   80  58  46 W12       29.97F HX  80
SHEBOYGAN      PTSUNNY   75  62  64 S7        29.97S
WEST BEND      MOSUNNY   79  54  41 W10       29.99S
JUNEAU         MOSUNNY   78  51  38 W8        30.01S
$$

LSZ147-162-010000-
LAKE SUPERIOR

STATION/POSITION TIME  TEMP    WIND        PRES    WAVE
                       AIR SEA DIR/SP/G            HT/PER
                 (UTC) (F)     (DEG/KT/KT) (MB)    (FT/S)
W MID LAKE BUOY  2150   53 45  190/  6/  8 1014.2F   0
PORT WING        2200   78     260/  6/  9 1014.2
SAXON HARBOR     2200             CALM     1014.6F
$$

LMZ867-665-643>646-010000-
LAKE MICHIGAN

STATION/POSITION TIME  TEMP    WIND        PRES    WAVE
                       AIR SEA DIR/SP/G            HT/PER
                 (UTC) (F)     (DEG/KT/KT) (MB)    (FT/S)
N MID LAKE BUOY  2150   59 55  210/ 14/ 14 1013.1F   2/ 4
NORTHPORT PIER   2200   72     160/  8/ 12 1013.5F
SISTER BAY       2210   77     200/ 10/ 12   N/A
KEWAUNEE LAKESHO 2200   57     170/ 10/ 10 1014.1F
SHEBOYGAN LAKESH 2200   69     180/  7/  8 1015.2R
PORT WASHINGTON  2200   68      60/  4/  5 1015.6
ATWATER BUOY     2200   77     250/  8     1016.2R
MILWAUKEE LAKESH 2200   80     280/ 12/ 17   N/A
S MID LAKE BUOY  2150   66 64  160/  6/  8 1016.1F   0
KENOSHA   LAKESH 2200   80     290/  9/ 13 1015.2S
$$

TC  - TEMPERATURE IN CELSIUS
VSB - VISIBILITY IN STATUTE MILES
WCI - WIND CHILL INDEX
HX  - HEAT INDEX




USA.gov is the U.S. government's official web portal to all federal, state and local government web resources and services.